Wind_Speed
11 10 9 8 8 7 7 7 6 6 7 6 4 4 3 4 4 4 6 7 7 8 9 10 11 12 13 14 16 16 17 18 19 20 21 21 21 21 19 17 17 18 19 19 21 20 21 22 23
11 9 8 7 7 6 6 5 5 4 3 3 4 4 4 4 4 5 5 5 7 9 10 10 11 12 13 14 15 17 17 18 19 20 21 21 20 18 17 18 19 21 22 21 20 22 23 24 23
10 9 7 6 5 5 4 4 3 0 1 3 4 5 4 4 5 6 7 8 9 9 9 10 11 12 13 13 14 16 18 19 20 21 20 19 17 16 17 18 20 21 21 22 24 26 27 27 27
10 9 8 7 6 5 4 3 3 2 1 1 2 3 6 6 8 9 10 10 9 9 10 11 12 14 15 15 16 17 18 19 20 20 18 16 16 17 18 19 20 21 22 23 25 26 25 24 27
11 11 10 9 8 6 4 3 2 2 3 3 3 4 7 9 10 11 12 13 12 13 13 14 14 15 17 18 18 18 18 19 20 18 17 17 18 19 20 21 20 22 22 24 24 25 25 29 33
12 12 12 10 9 7 6 4 4 4 5 7 7 7 8 10 10 12 15 16 17 17 17 17 17 18 18 18 17 18 19 19 19 19 18 18 21 22 23 23 23 24 24 26 28 30 32 36 38
14 13 13 12 12 10 8 7 6 7 8 8 9 8 8 9 11 13 15 16 18 18 17 18 17 17 18 18 19 20 20 19 18 19 20 21 22 24 25 25 26 26 28 30 32 36 40 42 42
17 14 14 15 14 12 10 9 8 10 11 11 10 8 7 7 10 11 13 14 16 18 18 19 20 19 19 19 21 21 21 20 20 21 22 22 23 25 26 27 29 30 32 36 38 42 45 46 50
19 15 16 17 16 14 13 12 11 13 14 14 11 8 7 6 7 9 11 13 15 17 18 19 20 21 21 22 21 21 22 22 22 22 23 24 25 26 27 29 32 33 36 40 45 48 50 52 52
22 18 20 19 19 17 16 15 15 16 16 16 13 11 8 5 4 7 9 9 11 14 17 18 21 23 25 25 23 23 23 24 23 23 25 25 27 28 29 30 33 37 40 43 47 50 52 53 55
25 21 23 22 21 19 19 18 18 18 19 17 16 13 10 5 2 3 5 7 9 10 13 16 20 25 27 27 26 26 25 25 25 25 25 26 27 28 31 32 34 38 41 45 49 51 53 57 57
30 27 26 25 23 22 21 21 20 21 22 20 18 16 11 7 3 1 3 5 7 10 12 15 19 27 29 28 28 29 28 26 26 25 25 26 28 29 31 33 35 38 42 47 50 53 58 59 61
34 32 30 29 25 24 22 23 22 23 23 23 21 18 13 9 7 5 6 6 8 11 13 14 18 26 29 29 28 29 29 27 27 26 26 27 28 30 32 34 36 39 43 48 51 56 58 63 65
37 35 33 31 29 27 26 26 24 28 24 24 22 20 16 13 10 8 8 7 10 14 15 16 20 25 28 28 27 28 29 29 28 28 27 27 28 30 32 34 37 40 45 48 53 55 61 63 47
40 39 37 34 33 30 30 26 25 30 26 26 24 23 19 16 14 10 11 10 12 16 19 20 22 24 26 29 27 27 28 29 29 28 27 27 28 29 31 34 37 41 45 49 52 56 55 55 39
43 42 41 36 35 34 34 26 32 31 30 28 29 28 23 19 16 15 15 13 14 18 22 24 24 24 25 27 27 28 28 28 28 27 27 26 27 28 31 34 36 42 44 48 51 49 55 56 36
47 45 40 38 39 38 38 31 35 35 33 31 31 30 28 24 22 19 18 17 18 23 25 27 27 26 27 27 28 29 29 28 27 27 26 25 25 27 30 33 36 41 43 46 48 45 50 52 31
43 45 43 43 43 43 42 35 38 38 36 35 34 34 32 29 27 24 21 20 25 26 28 28 27 28 27 27 28 29 29 28 28 26 25 25 24 27 29 31 35 39 42 43 40 40 45 48 32
47 49 50 48 47 47 46 41 40 41 39 36 37 37 35 33 32 29 27 27 27 29 30 29 28 29 27 27 28 29 29 28 28 28 26 24 24 26 28 31 34 36 40 41 32 37 42 43 36
48 49 50 50 51 51 49 47 43 44 41 40 40 38 37 37 37 35 32 30 31 31 31 32 30 29 28 28 28 29 29 27 28 28 25 24 23 26 27 29 32 34 37 38 27 32 36 38 35
50 49 47 47 50 52 53 51 45 45 45 42 41 40 38 38 39 38 36 35 33 32 31 32 31 30 29 28 29 29 28 27 27 27 25 24 23 24 25 27 29 31 34 35 28 28 31 33 35
52 49 48 47 50 54 54 56 49 48 49 45 43 41 41 40 40 40 40 37 34 33 33 33 31 29 29 29 29 29 27 25 26 26 24 24 23 23 24 25 26 28 30 31 29 20 25 26 31
49 48 51 50 51 54 54 58 51 49 49 48 44 42 41 40 39 40 38 37 34 34 34 32 31 29 29 29 29 29 27 24 25 25 23 23 22 22 23 23 24 24 26 28 26 16 20 22 24
56 51 50 53 54 57 55 56 56 49 47 46 47 44 42 40 38 37 37 35 34 34 33 32 31 29 29 29 29 29 27 24 24 24 23 22 21 20 21 21 22 21 22 25 23 20 11 17 16
60 56 52 53 56 59 59 58 56 48 47 45 47 45 42 40 39 38 36 36 34 33 33 31 31 30 29 29 29 28 27 24 23 25 23 21 20 19 19 19 19 18 18 21 20 17 12 7 11
64 65 61 56 55 54 59 59 54 51 45 39 41 48 44 41 39 38 37 36 35 34 32 32 31 30 29 29 29 28 26 24 24 24 22 20 19 19 18 18 16 16 16 17 16 13 9 4 2
52 57 61 62 61 60 60 57 56 53 50 45 43 40 40 40 38 37 36 36 35 34 34 31 31 29 30 30 30 28 25 25 25 24 22 19 19 18 18 16 14 14 14 15 13 12 5 3 2
54 53 54 58 58 61 65 61 56 54 53 49 41 40 40 41 40 38 36 36 35 35 32 31 32 30 31 31 30 28 25 25 26 25 23 20 19 19 19 17 13 13 12 12 11 9 6 1 4
53 54 52 55 60 60 62 63 57 49 47 46 42 39 40 40 40 39 38 36 35 34 32 34 32 30 31 31 29 27 26 27 27 26 24 22 21 20 18 18 15 13 12 11 11 9 6 4 6
53 51 54 52 51 60 63 57 54 53 46 40 36 30 33 35 37 38 37 35 33 34 34 33 31 31 31 30 29 26 28 28 28 27 26 24 22 20 19 18 16 14 13 12 11 10 7 6 8
Wind_Direction
166 162 153 139 130 111 96 88 75 71 73 67 52 34 13 355 348 352 4 2 352 343 342 344 341 330 333 334 330 329 324 319 316 315 313 312 313 311 313 313 315 312 310 309 308 306 303 301 299
174 168 160 148 134 115 103 94 72 50 46 45 29 21 22 15 355 356 2 357 352 352 355 354 343 339 339 339 335 329 323 320 317 314 312 311 310 310 311 313 314 313 312 312 312 310 307 304 302
186 179 176 169 156 150 141 129 108 61 25 21 19 13 14 20 10 358 359 3 356 358 358 352 346 342 344 340 337 331 327 321 318 315 310 308 307 306 308 309 310 311 312 313 314 315 313 307 304
201 195 192 192 194 194 178 166 168 208 180 145 69 61 55 54 41 34 30 23 13 2 2 355 352 351 350 346 344 337 328 323 319 314 308 306 304 305 307 308 308 312 314 315 316 314 313 312 309
207 205 201 206 213 217 207 212 195 206 206 175 139 110 83 76 70 61 52 43 33 23 13 5 0 357 353 352 345 337 330 326 323 318 310 309 308 308 309 308 310 314 314 314 314 314 311 309 308
213 210 207 208 223 227 225 226 208 200 201 167 151 129 102 91 81 70 61 52 44 37 27 15 6 1 357 353 347 339 337 334 329 321 313 312 310 311 310 311 313 314 315 315 312 311 308 307 304
220 216 211 212 219 224 219 215 201 196 194 179 157 139 119 102 85 76 69 61 54 45 39 30 20 10 3 354 348 346 341 337 329 321 316 314 313 314 313 316 314 315 315 313 309 306 305 300 301
229 218 216 215 219 222 216 211 203 195 194 184 170 156 138 112 91 86 73 64 56 46 37 30 26 19 7 358 351 348 341 338 331 324 319 317 317 317 318 318 317 316 313 312 308 307 306 304 301
235 223 220 220 221 214 213 209 205 199 198 191 188 178 161 129 101 81 66 48 40 37 29 25 24 20 14 9 356 347 342 337 333 327 322 319 320 322 320 320 319 317 316 315 313 309 307 306 303
237 229 226 220 224 220 209 208 208 206 206 201 200 200 191 155 108 78 57 35 28 25 19 19 21 17 11 7 2 354 343 336 333 328 323 322 322 325 322 321 320 319 318 317 314 312 310 308 305
234 232 231 225 225 226 215 210 209 214 214 210 209 215 209 191 125 54 41 20 10 8 15 16 16 10 4 360 358 356 348 338 334 329 324 323 324 326 323 324 323 321 320 318 317 315 313 309 303
234 232 235 232 226 227 224 215 212 215 217 219 216 220 219 212 213 266 327 349 344 351 1 7 6 0 355 353 353 353 348 341 334 330 327 327 327 328 326 327 326 325 324 322 322 319 317 312 305
234 234 233 235 230 227 226 225 214 220 216 222 220 220 222 222 235 254 280 311 326 334 343 350 351 349 350 350 348 348 346 341 336 332 332 332 331 330 330 330 329 328 327 328 326 326 320 315 313
237 238 236 237 232 230 226 227 223 225 217 225 222 222 227 231 237 262 280 305 315 321 328 334 337 338 342 344 343 344 342 341 338 335 335 335 334 333 332 333 333 333 332 333 333 329 324 325 333
236 237 237 236 238 231 231 227 224 229 224 226 226 227 233 241 244 265 274 298 308 314 315 319 322 331 334 338 337 339 340 340 338 336 337 337 337 335 334 337 337 336 338 340 337 334 339 349 349
238 236 237 237 239 236 233 222 229 230 230 225 229 232 235 244 250 263 275 287 303 311 311 312 315 322 326 330 333 335 337 339 337 337 337 338 338 338 339 340 340 340 345 344 342 343 354 1 359
240 241 240 239 241 241 238 224 232 231 232 229 230 236 239 245 249 261 270 281 294 302 302 306 308 317 322 326 328 332 334 336 336 336 335 338 339 340 343 343 344 345 350 348 348 352 1 10 7
241 241 239 238 238 239 239 233 232 237 232 234 232 235 240 247 250 257 263 276 292 290 296 298 303 310 317 321 325 328 330 333 334 333 333 338 340 344 348 346 348 349 355 354 359 2 7 17 22
237 236 236 236 237 238 240 238 236 237 237 237 237 236 239 247 253 255 261 277 280 283 290 292 298 304 311 316 320 323 327 331 333 330 334 338 342 349 351 350 351 353 359 359 7 10 15 27 36
239 239 238 237 238 239 239 238 237 238 235 239 239 241 243 245 249 250 258 268 272 276 283 287 293 301 308 311 315 319 324 328 332 330 331 336 345 353 353 354 353 358 2 5 13 17 21 30 45
241 241 239 237 238 239 240 240 238 240 241 236 241 244 243 246 250 253 258 265 269 273 278 284 290 297 302 305 311 314 320 325 330 328 329 335 346 354 355 356 355 1 6 9 14 18 29 30 42
241 241 242 238 238 239 241 242 236 238 243 243 240 241 244 245 247 251 256 263 266 271 275 280 285 292 296 300 305 309 315 320 328 325 327 332 343 354 354 357 357 5 12 14 13 19 28 37 51
246 242 243 243 240 239 240 243 236 237 239 244 244 244 245 247 250 254 258 261 265 268 272 276 281 286 290 295 300 305 310 316 323 322 323 328 339 352 354 356 357 6 16 18 17 16 26 48 58
244 244 241 242 244 242 240 242 243 235 240 243 246 244 246 247 250 253 256 260 262 265 268 273 277 281 284 291 297 302 306 311 319 320 322 326 336 347 353 357 357 4 13 17 21 20 15 42 53
242 241 248 246 244 245 246 243 245 242 237 240 246 248 248 248 250 253 256 259 261 263 267 270 273 276 281 286 292 296 300 304 316 316 319 322 330 340 350 354 354 358 5 12 18 25 19 26 64
247 247 247 250 251 250 250 248 244 248 242 238 241 246 248 248 249 251 253 257 260 261 264 266 270 273 278 282 287 289 293 299 311 312 314 318 323 332 342 347 347 354 356 8 16 25 22 30 49
251 250 250 247 245 244 248 248 245 246 248 243 240 242 245 248 249 250 252 254 257 260 260 263 266 269 273 278 282 285 286 294 306 307 307 309 312 322 329 336 337 344 350 353 10 17 22 6 206
251 254 251 243 242 243 243 241 244 244 248 250 242 244 247 248 251 253 254 255 256 255 257 258 260 266 271 276 279 282 281 292 301 301 300 303 304 313 318 321 332 330 339 338 351 6 1 300 263
250 252 255 255 245 244 247 244 241 245 249 254 254 244 243 246 249 251 251 250 249 252 253 255 259 264 269 273 275 276 280 291 295 294 293 294 297 302 308 312 320 322 322 324 329 342 344 302 238
245 250 251 253 255 252 251 248 246 245 247 249 249 239 235 235 238 242 244 245 247 249 251 256 260 263 267 270 272 271 281 287 288 287 286 289 292 293 300 304 307 308 311 309 312 315 314 303 260
Height
5843 5844 5845 5846 5849 5848 5848 5849 5848 5847 5848 5848 5848 5848 5848 5847 5847 5849 5846 5845 5844 5842 5840 5838 5836 5834 5833 5832 5830 5828 5826 5824 5822 5819 5817 5815 5813 5810 5808 5805 5803 5801 5798 5797 5795 5793 5791 5790 5788
5842 5844 5845 5845 5847 5846 5848 5848 5848 5848 5848 5848 5848 5848 5848 5848 5846 5846 5845 5843 5842 5840 5838 5837 5835 5834 5832 5830 5829 5827 5824 5822 5820 5817 5815 5813 5810 5808 5805 5803 5801 5799 5796 5794 5792 5790 5788 5786 5784
5842 5843 5844 5844 5845 5846 5847 5847 5848 5848 5847 5847 5847 5847 5847 5847 5846 5845 5844 5843 5841 5839 5837 5836 5834 5833 5831 5828 5826 5825 5823 5820 5818 5816 5813 5810 5807 5805 5803 5801 5798 5795 5793 5791 5788 5786 5784 5781 5779
5841 5842 5844 5844 5844 5844 5845 5846 5847 5847 5847 5847 5847 5847 5847 5846 5845 5845 5844 5842 5840 5839 5837 5835 5833 5831 5829 5827 5826 5823 5821 5818 5816 5813 5810 5808 5805 5803 5800 5797 5795 5793 5790 5788 5785 5781 5778 5776 5775
5839 5841 5842 5842 5842 5843 5844 5845 5846 5846 5846 5847 5847 5847 5846 5846 5846 5845 5843 5842 5840 5838 5836 5834 5833 5830 5829 5827 5825 5822 5819 5817 5815 5812 5809 5806 5804 5801 5798 5795 5792 5789 5786 5783 5780 5777 5774 5771 5768
5837 5839 5840 5841 5841 5841 5842 5843 5845 5845 5846 5846 5847 5846 5847 5846 5846 5844 5843 5841 5839 5837 5836 5834 5832 5830 5828 5826 5824 5821 5819 5816 5813 5810 5807 5804 5801 5798 5795 5792 5789 5786 5782 5779 5776 5772 5768 5764 5760
5835 5837 5838 5839 5839 5840 5841 5842 5843 5844 5845 5846 5846 5846 5846 5846 5845 5844 5842 5841 5840 5838 5836 5834 5832 5830 5828 5825 5822 5820 5817 5814 5811 5807 5804 5801 5798 5795 5792 5789 5786 5782 5778 5774 5770 5765 5760 5755 5751
5833 5835 5836 5837 5837 5838 5839 5840 5842 5843 5844 5845 5845 5845 5846 5845 5844 5843 5842 5841 5840 5838 5837 5835 5833 5831 5828 5825 5822 5818 5815 5812 5808 5804 5801 5798 5795 5792 5789 5785 5782 5777 5773 5768 5763 5757 5751 5745 5738
5831 5833 5833 5834 5835 5836 5837 5838 5840 5841 5842 5843 5843 5844 5845 5844 5844 5843 5842 5841 5840 5838 5837 5835 5833 5830 5827 5824 5821 5817 5813 5809 5806 5802 5799 5795 5792 5789 5785 5781 5777 5772 5766 5760 5754 5746 5739 5732 5724
5827 5830 5830 5832 5833 5834 5834 5836 5838 5839 5840 5841 5842 5843 5843 5843 5843 5842 5841 5840 5839 5838 5836 5835 5832 5829 5826 5823 5819 5815 5811 5807 5803 5800 5796 5793 5789 5785 5781 5777 5772 5766 5759 5753 5744 5736 5728 5719 5709
5823 5826 5827 5828 5830 5832 5833 5833 5835 5837 5837 5838 5839 5840 5841 5841 5842 5842 5841 5839 5838 5837 5835 5833 5831 5828 5825 5822 5818 5814 5809 5805 5801 5797 5793 5790 5786 5782 5777 5772 5767 5760 5753 5745 5736 5726 5717 5706 5693
5818 5820 5822 5824 5826 5828 5830 5831 5832 5833 5834 5836 5837 5838 5839 5840 5840 5840 5839 5838 5836 5835 5833 5831 5829 5827 5824 5821 5817 5813 5808 5804 5799 5795 5791 5787 5783 5778 5773 5767 5761 5755 5747 5738 5728 5717 5704 5690 5676
5811 5814 5817 5818 5821 5824 5826 5828 5829 5829 5831 5832 5834 5835 5836 5837 5837 5837 5837 5835 5834 5833 5831 5829 5827 5825 5822 5819 5815 5811 5806 5802 5797 5792 5789 5784 5780 5775 5769 5763 5757 5750 5740 5731 5719 5707 5690 5674 5656
5806 5808 5811 5814 5816 5819 5821 5824 5826 5825 5828 5829 5831 5832 5833 5834 5834 5834 5834 5832 5831 5830 5829 5828 5825 5823 5820 5816 5813 5808 5803 5799 5794 5789 5785 5781 5776 5771 5766 5759 5753 5745 5736 5725 5713 5698 5679 5659 5642
5797 5801 5804 5808 5810 5813 5815 5819 5823 5820 5824 5826 5828 5829 5830 5831 5831 5831 5830 5829 5828 5828 5827 5825 5823 5820 5818 5814 5810 5805 5800 5796 5791 5786 5782 5778 5773 5768 5763 5756 5749 5741 5731 5720 5707 5690 5671 5652 5636
5788 5793 5796 5802 5804 5807 5808 5815 5814 5817 5818 5821 5823 5825 5826 5827 5828 5828 5827 5826 5825 5824 5824 5822 5820 5817 5815 5811 5807 5802 5797 5792 5788 5784 5780 5775 5771 5766 5760 5753 5746 5737 5728 5717 5703 5685 5668 5650 5637
5780 5785 5791 5795 5797 5799 5801 5808 5806 5809 5812 5815 5817 5820 5822 5823 5822 5823 5823 5823 5821 5820 5819 5818 5816 5814 5812 5808 5804 5800 5795 5790 5785 5781 5777 5773 5768 5763 5757 5751 5743 5735 5726 5714 5700 5685 5669 5654 5642
5773 5778 5782 5784 5788 5788 5791 5800 5799 5801 5805 5808 5812 5813 5815 5817 5817 5817 5818 5818 5817 5816 5815 5813 5812 5810 5808 5804 5801 5796 5792 5788 5784 5778 5774 5770 5765 5761 5755 5748 5741 5734 5725 5714 5700 5687 5674 5661 5649
5760 5764 5769 5773 5776 5779 5783 5789 5793 5794 5798 5802 5803 5806 5808 5810 5811 5811 5812 5812 5812 5811 5811 5809 5807 5805 5803 5800 5797 5793 5789 5785 5782 5777 5773 5768 5763 5758 5753 5747 5740 5733 5725 5714 5703 5692 5681 5670 5660
5751 5754 5759 5763 5765 5769 5773 5779 5784 5785 5790 5793 5795 5799 5801 5803 5804 5805 5805 5806 5806 5806 5806 5805 5803 5801 5798 5795 5793 5789 5786 5782 5779 5775 5771 5766 5762 5757 5751 5746 5740 5733 5725 5716 5706 5698 5688 5681 5672
5741 5746 5748 5752 5755 5758 5762 5768 5776 5778 5780 5785 5788 5791 5794 5796 5798 5799 5800 5800 5800 5800 5800 5799 5798 5796 5793 5791 5788 5785 5782 5779 5776 5772 5769 5764 5760 5755 5750 5745 5740 5734 5727 5719 5710 5703 5696 5690 5683
5729 5736 5739 5741 5743 5748 5752 5754 5765 5769 5771 5776 5780 5783 5785 5787 5790 5792 5793 5793 5793 5794 5793 5793 5792 5790 5788 5786 5783 5780 5777 5775 5773 5769 5766 5762 5759 5754 5749 5744 5740 5734 5728 5722 5715 5707 5702 5698 5694
5722 5724 5727 5731 5733 5736 5742 5742 5756 5760 5763 5767 5772 5775 5778 5780 5782 5784 5785 5786 5787 5787 5787 5786 5785 5784 5782 5781 5779 5776 5773 5771 5769 5766 5763 5760 5757 5753 5748 5744 5740 5735 5730 5725 5718 5712 5707 5704 5702
5710 5712 5715 5718 5722 5724 5732 5734 5739 5752 5757 5760 5762 5766 5769 5772 5774 5776 5778 5779 5780 5780 5780 5780 5779 5778 5777 5775 5773 5771 5769 5767 5765 5762 5760 5757 5754 5751 5747 5743 5740 5736 5732 5728 5722 5717 5712 5708 5708
5697 5703 5704 5706 5709 5716 5718 5724 5733 5742 5748 5751 5754 5756 5760 5763 5766 5768 5769 5771 5772 5772 5773 5773 5772 5772 5771 5769 5768 5766 5764 5762 5761 5759 5757 5755 5752 5749 5746 5742 5739 5735 5733 5730 5725 5720 5716 5713 5710
5688 5690 5693 5695 5701 5708 5706 5714 5727 5731 5737 5742 5744 5747 5750 5753 5756 5758 5760 5762 5764 5764 5764 5765 5765 5764 5764 5763 5762 5760 5759 5758 5756 5754 5753 5751 5749 5746 5743 5740 5738 5735 5732 5730 5727 5723 5719 5715 5713
5672 5673 5684 5682 5686 5691 5695 5707 5715 5721 5725 5732 5735 5737 5740 5743 5746 5748 5751 5753 5754 5755 5756 5757 5757 5757 5757 5757 5755 5754 5753 5752 5751 5749 5749 5747 5745 5743 5740 5737 5735 5733 5731 5729 5727 5724 5720 5718 5714
5662 5670 5668 5669 5674 5677 5684 5692 5702 5710 5714 5718 5726 5728 5730 5733 5736 5739 5741 5743 5745 5746 5748 5748 5749 5749 5750 5750 5749 5748 5747 5747 5746 5744 5743 5743 5741 5739 5736 5734 5732 5731 5729 5727 5726 5724 5721 5719 5717
5651 5655 5658 5663 5665 5667 5674 5681 5694 5700 5705 5709 5713 5717 5720 5723 5726 5729 5731 5733 5736 5738 5739 5740 5741 5742 5742 5742 5742 5742 5741 5741 5739 5738 5737 5737 5736 5735 5732 5731 5729 5728 5726 5725 5724 5722 5721 5719 5717
5639 5646 5648 5650 5659 5660 5663 5670 5684 5691 5696 5699 5702 5707 5710 5713 5716 5718 5721 5724 5727 5729 5730 5732 5733 5734 5735 5735 5736 5735 5735 5734 5733 5732 5732 5731 5731 5729 5728 5727 5725 5724 5723 5722 5721 5719 5718 5717 5716